AAL957 KMIA-MWCR

Flight info

Callsign AAL957
Flight time 1h 11m
Altitude 35000
Route MAYNR3 FUNDI UM335 ALVEK UM328 UCL UZ313 LACET UL465 GCM
Aircraft A319/M-SDE3FGHIRWY/LB1

Departure

Time 2026-04-26 17:02
Airport Miami International Airport (KMIA)

Arrival

Time 2026-04-26 18:14
Airport Owen Roberts International Airport (MWCR)
Time Latitude Longitude Altitude Speed Heading
2026-04-26 16:36 25.79775 -80.27879 17 ft 0 kts 176°
2026-04-26 16:36 25.79770 -80.27880 17 ft 0 kts 178°
2026-04-26 16:52 25.79777 -80.27880 17 ft 4 kts 178°
2026-04-26 16:53 25.79804 -80.27881 16 ft 4 kts 178°
2026-04-26 16:53 25.79831 -80.27883 15 ft 4 kts 178°
2026-04-26 16:53 25.79854 -80.27884 15 ft 2 kts 178°
2026-04-26 16:53 25.79876 -80.27880 17 ft 4 kts 232°
2026-04-26 16:54 25.79883 -80.27855 14 ft 3 kts 267°
2026-04-26 16:54 25.79884 -80.27838 14 ft 0 kts 267°
2026-04-26 16:56 25.79884 -80.27839 14 ft 1 kts 267°
2026-04-26 16:57 25.79886 -80.27866 14 ft 6 kts 285°
2026-04-26 16:57 25.79940 -80.27889 13 ft 11 kts 353°
2026-04-26 16:57 25.79964 -80.28080 12 ft 15 kts 267°
2026-04-26 16:58 25.79958 -80.28196 15 ft 15 kts 267°
2026-04-26 16:58 25.79955 -80.28270 15 ft 14 kts 269°
2026-04-26 16:58 25.80029 -80.28481 16 ft 15 kts 268°
2026-04-26 16:59 25.80025 -80.28598 19 ft 15 kts 268°
2026-04-26 16:59 25.80017 -80.28818 22 ft 15 kts 266°
2026-04-26 17:00 25.80003 -80.29095 21 ft 19 kts 267°
2026-04-26 17:00 25.79991 -80.29420 15 ft 25 kts 268°
2026-04-26 17:00 25.79983 -80.29618 14 ft 26 kts 268°
2026-04-26 17:01 25.79974 -80.29822 13 ft 27 kts 266°
2026-04-26 17:01 25.79980 -80.29981 11 ft 19 kts 285°
2026-04-26 17:01 25.80024 -80.30116 15 ft 17 kts 315°
2026-04-26 17:01 25.80076 -80.30057 13 ft 14 kts 87°
2026-04-26 17:02 25.80084 -80.29845 13 ft 60 kts 88°
2026-04-26 17:02 25.80114 -80.29105 21 ft 129 kts 87°
2026-04-26 17:02 25.80165 -80.27966 348 ft 151 kts 88°
2026-04-26 17:02 25.80248 -80.26799 1033 ft 153 kts 91°
2026-04-26 17:03 25.80019 -80.25657 1697 ft 154 kts 118°
2026-04-26 17:03 25.79325 -80.24687 2167 ft 172 kts 140°
2026-04-26 17:03 25.78357 -80.23744 2565 ft 197 kts 140°
2026-04-26 17:03 25.77271 -80.22688 3004 ft 219 kts 140°
2026-04-26 17:04 25.76058 -80.21513 3541 ft 244 kts 140°
2026-04-26 17:04 25.74721 -80.20226 4247 ft 261 kts 142°
2026-04-26 17:04 25.73101 -80.19298 5157 ft 268 kts 167°
2026-04-26 17:04 25.71236 -80.19114 6148 ft 272 kts 179°
2026-04-26 17:05 25.69332 -80.19049 7133 ft 275 kts 178°
2026-04-26 17:05 25.67390 -80.19026 8068 ft 282 kts 185°
2026-04-26 17:05 25.65425 -80.19283 9021 ft 286 kts 188°
2026-04-26 17:05 25.63434 -80.19570 9919 ft 291 kts 189°
2026-04-26 17:06 25.61470 -80.20162 10737 ft 297 kts 203°
2026-04-26 17:06 25.59573 -80.21261 11114 ft 319 kts 212°
2026-04-26 17:06 25.57610 -80.22523 11722 ft 331 kts 213°
2026-04-26 17:06 25.55592 -80.23818 12483 ft 338 kts 213°
2026-04-26 17:07 25.53538 -80.25130 13283 ft 344 kts 213°
2026-04-26 17:07 25.51451 -80.26454 14073 ft 348 kts 213°
2026-04-26 17:07 25.49329 -80.27792 14842 ft 353 kts 213°
2026-04-26 17:07 25.47209 -80.29123 15578 ft 358 kts 213°
2026-04-26 17:08 25.45031 -80.30491 16289 ft 362 kts 213°
2026-04-26 17:08 25.42825 -80.31879 16986 ft 367 kts 213°
2026-04-26 17:08 25.40595 -80.33283 17680 ft 371 kts 213°
2026-04-26 17:08 25.38337 -80.34706 18357 ft 376 kts 213°
2026-04-26 17:09 25.36053 -80.36145 19028 ft 379 kts 213°
2026-04-26 17:09 25.34500 -80.37124 19472 ft 382 kts 213°
2026-04-26 17:09 25.31419 -80.39066 20327 ft 388 kts 213°
2026-04-26 17:09 25.29063 -80.40546 20961 ft 391 kts 214°
2026-04-26 17:10 25.26686 -80.42039 21573 ft 395 kts 214°
2026-04-26 17:10 25.24276 -80.43527 22175 ft 400 kts 211°
2026-04-26 17:10 25.21658 -80.44673 22753 ft 409 kts 201°
2026-04-26 17:10 25.18915 -80.45565 23323 ft 413 kts 200°
2026-04-26 17:11 25.16146 -80.46465 23887 ft 417 kts 201°
2026-04-26 17:11 25.13351 -80.47375 24447 ft 420 kts 201°
2026-04-26 17:11 25.10537 -80.48295 24987 ft 423 kts 201°
2026-04-26 17:11 25.07700 -80.49225 25509 ft 427 kts 201°
2026-04-26 17:12 25.01969 -80.51098 26528 ft 433 kts 201°
2026-04-26 17:12 24.99073 -80.52043 27017 ft 436 kts 201°
2026-04-26 17:13 24.93228 -80.53947 27946 ft 441 kts 201°
2026-04-26 17:13 24.90279 -80.54907 28390 ft 443 kts 201°
2026-04-26 17:13 24.84552 -80.57351 29254 ft 439 kts 215°
2026-04-26 17:14 24.82059 -80.59265 29666 ft 436 kts 225°
2026-04-26 17:14 24.78136 -80.64231 30482 ft 428 kts 242°
2026-04-26 17:14 24.76541 -80.67002 30882 ft 430 kts 242°
2026-04-26 17:15 24.73315 -80.72578 31652 ft 434 kts 242°
2026-04-26 17:15 24.71688 -80.75374 32019 ft 435 kts 242°
2026-04-26 17:15 24.70051 -80.78185 32374 ft 437 kts 242°
2026-04-26 17:16 24.68408 -80.81000 32812 ft 437 kts 242°
2026-04-26 17:16 24.66794 -80.83764 33320 ft 434 kts 242°
2026-04-26 17:16 24.65167 -80.86553 33799 ft 433 kts 242°
2026-04-26 17:16 24.63548 -80.89335 33961 ft 430 kts 242°
2026-04-26 17:17 24.61931 -80.92106 33998 ft 418 kts 242°
2026-04-26 17:17 24.60404 -80.94713 33999 ft 407 kts 242°
2026-04-26 17:17 24.58709 -80.97201 33999 ft 409 kts 232°
2026-04-26 17:17 24.56532 -80.99250 33997 ft 417 kts 219°
2026-04-26 17:18 24.53934 -81.00731 34000 ft 427 kts 206°
2026-04-26 17:18 24.51028 -81.01527 33997 ft 437 kts 192°
2026-04-26 17:18 24.47963 -81.01626 34002 ft 443 kts 185°
2026-04-26 17:19 24.38720 -81.01513 33998 ft 443 kts 185°
2026-04-26 17:19 24.32560 -81.01459 34001 ft 442 kts 185°
2026-04-26 17:20 24.28439 -81.01428 34002 ft 443 kts 185°
2026-04-26 17:20 24.20241 -81.01364 34004 ft 443 kts 185°
2026-04-26 17:21 24.14083 -81.01314 34006 ft 442 kts 185°
2026-04-26 17:21 24.07973 -81.01262 34004 ft 442 kts 185°
2026-04-26 17:22 24.01783 -81.01214 34002 ft 442 kts 185°
2026-04-26 17:22 23.95668 -81.01096 34011 ft 443 kts 185°
2026-04-26 17:23 23.89510 -81.00806 34018 ft 442 kts 184°
2026-04-26 17:23 23.83368 -81.00499 34016 ft 441 kts 184°
2026-04-26 17:24 23.77239 -81.00224 34016 ft 441 kts 184°
2026-04-26 17:24 23.71118 -80.99970 34018 ft 440 kts 185°
2026-04-26 17:25 23.65003 -80.99718 34017 ft 439 kts 185°
2026-04-26 17:25 23.58895 -80.99459 34009 ft 439 kts 185°
2026-04-26 17:26 23.52796 -80.99198 34006 ft 439 kts 185°
2026-04-26 17:26 23.46701 -80.98944 34010 ft 438 kts 185°
2026-04-26 17:27 23.40607 -80.98696 34007 ft 438 kts 185°
2026-04-26 17:27 23.35546 -80.98483 34007 ft 438 kts 185°
2026-04-26 17:28 23.29464 -80.98228 34010 ft 437 kts 185°
2026-04-26 17:28 23.23380 -80.97971 34007 ft 437 kts 184°
2026-04-26 17:29 23.18330 -80.97752 34005 ft 437 kts 185°
2026-04-26 17:29 23.10253 -80.97416 33996 ft 436 kts 185°
2026-04-26 17:30 23.05178 -80.97212 33991 ft 434 kts 187°
2026-04-26 17:30 22.99355 -80.98151 33987 ft 416 kts 205°
2026-04-26 17:31 22.93949 -81.00299 33981 ft 413 kts 207°
2026-04-26 17:31 22.88595 -81.02444 33978 ft 413 kts 207°
2026-04-26 17:32 22.83171 -81.04615 33975 ft 413 kts 207°
2026-04-26 17:32 22.77811 -81.06758 33973 ft 413 kts 207°
2026-04-26 17:33 22.72416 -81.08912 33975 ft 413 kts 207°
2026-04-26 17:34 22.64333 -81.12146 33979 ft 413 kts 207°
2026-04-26 17:34 22.58943 -81.14296 33978 ft 412 kts 207°
2026-04-26 17:35 22.53562 -81.16443 33981 ft 413 kts 207°
2026-04-26 17:35 22.48176 -81.18582 33982 ft 412 kts 207°
2026-04-26 17:36 22.42803 -81.20723 33975 ft 411 kts 207°
2026-04-26 17:36 22.37432 -81.22860 33972 ft 411 kts 207°
2026-04-26 17:37 22.32061 -81.24994 33967 ft 411 kts 207°
2026-04-26 17:37 22.26693 -81.27128 33967 ft 411 kts 207°
2026-04-26 17:38 22.18644 -81.30326 33969 ft 411 kts 207°
2026-04-26 17:38 22.13280 -81.32457 33964 ft 411 kts 207°
2026-04-26 17:39 22.07916 -81.34575 33964 ft 411 kts 207°
2026-04-26 17:39 22.02543 -81.36697 33969 ft 411 kts 207°
2026-04-26 17:40 21.98092 -81.38459 33966 ft 410 kts 207°
2026-04-26 17:40 21.94498 -81.39879 33768 ft 413 kts 207°
2026-04-26 17:40 21.91806 -81.40939 33526 ft 412 kts 207°
2026-04-26 17:41 21.89153 -81.41984 33292 ft 411 kts 207°
2026-04-26 17:41 21.86462 -81.43042 32970 ft 411 kts 207°
2026-04-26 17:41 21.83785 -81.44097 32602 ft 409 kts 207°
2026-04-26 17:41 21.81116 -81.45149 32227 ft 408 kts 207°
2026-04-26 17:42 21.78454 -81.46198 31857 ft 407 kts 207°
2026-04-26 17:42 21.75799 -81.47245 31472 ft 405 kts 207°
2026-04-26 17:42 21.73153 -81.48288 31098 ft 405 kts 207°
2026-04-26 17:42 21.70512 -81.49328 30721 ft 404 kts 207°
2026-04-26 17:43 21.67873 -81.50365 30342 ft 403 kts 207°
2026-04-26 17:43 21.65246 -81.51398 29968 ft 402 kts 207°
2026-04-26 17:43 21.62621 -81.52433 29593 ft 401 kts 207°
2026-04-26 17:43 21.59954 -81.53349 29223 ft 405 kts 199°
2026-04-26 17:44 21.57172 -81.53903 28838 ft 407 kts 196°
2026-04-26 17:44 21.54391 -81.54424 28464 ft 405 kts 196°
2026-04-26 17:44 21.51621 -81.54948 28091 ft 403 kts 196°
2026-04-26 17:44 21.48867 -81.55469 27715 ft 401 kts 196°
2026-04-26 17:45 21.46124 -81.55989 27339 ft 399 kts 196°
2026-04-26 17:45 21.43396 -81.56506 26967 ft 397 kts 195°
2026-04-26 17:45 21.40680 -81.57020 26587 ft 395 kts 195°
2026-04-26 17:45 21.37976 -81.57534 26214 ft 394 kts 195°
2026-04-26 17:46 21.35285 -81.58045 25840 ft 392 kts 195°
2026-04-26 17:46 21.32604 -81.58549 25462 ft 390 kts 195°
2026-04-26 17:46 21.29935 -81.59047 25086 ft 388 kts 195°
2026-04-26 17:46 21.27281 -81.59544 24712 ft 387 kts 195°
2026-04-26 17:47 21.24635 -81.60041 24339 ft 385 kts 194°
2026-04-26 17:47 21.22892 -81.60372 24093 ft 384 kts 194°
2026-04-26 17:47 21.19381 -81.61039 23587 ft 382 kts 194°
2026-04-26 17:47 21.16769 -81.61535 23214 ft 380 kts 194°
2026-04-26 17:48 21.14169 -81.62027 22840 ft 378 kts 194°
2026-04-26 17:48 21.11586 -81.62512 22465 ft 376 kts 194°
2026-04-26 17:48 21.09016 -81.62996 22091 ft 374 kts 194°
2026-04-26 17:48 21.06457 -81.63478 21720 ft 372 kts 194°
2026-04-26 17:49 21.03915 -81.63956 21352 ft 370 kts 193°
2026-04-26 17:49 21.01390 -81.64427 20967 ft 367 kts 193°
2026-04-26 17:49 20.98876 -81.64896 20591 ft 366 kts 193°
2026-04-26 17:49 20.96379 -81.65363 20215 ft 363 kts 193°
2026-04-26 17:50 20.93896 -81.65827 19840 ft 361 kts 193°
2026-04-26 17:50 20.91427 -81.66287 19465 ft 359 kts 193°
2026-04-26 17:50 20.88969 -81.66749 19088 ft 358 kts 193°
2026-04-26 17:50 20.86554 -81.67200 18720 ft 356 kts 193°
2026-04-26 17:51 20.84121 -81.67656 18340 ft 355 kts 193°
2026-04-26 17:51 20.81694 -81.68113 17966 ft 353 kts 193°
2026-04-26 17:51 20.79277 -81.68568 17593 ft 352 kts 193°
2026-04-26 17:51 20.76868 -81.69022 17213 ft 351 kts 192°
2026-04-26 17:52 20.74467 -81.69472 16835 ft 350 kts 192°
2026-04-26 17:52 20.72072 -81.69919 16461 ft 349 kts 192°
2026-04-26 17:52 20.69683 -81.70365 16082 ft 348 kts 192°
2026-04-26 17:52 20.67299 -81.70811 15708 ft 348 kts 192°
2026-04-26 17:53 20.64918 -81.71256 15332 ft 347 kts 191°
2026-04-26 17:53 20.62547 -81.71700 14954 ft 346 kts 191°
2026-04-26 17:53 20.60179 -81.72146 14580 ft 345 kts 191°
2026-04-26 17:54 20.55461 -81.73030 13850 ft 342 kts 191°
2026-04-26 17:54 20.53122 -81.73463 13489 ft 341 kts 190°
2026-04-26 17:54 20.50790 -81.73892 13113 ft 339 kts 190°
2026-04-26 17:54 20.48469 -81.74324 12737 ft 338 kts 190°
2026-04-26 17:55 20.46160 -81.74759 12382 ft 336 kts 190°
2026-04-26 17:55 20.43868 -81.75192 12025 ft 334 kts 190°
2026-04-26 17:55 20.41583 -81.75620 11654 ft 333 kts 189°
2026-04-26 17:55 20.39310 -81.76042 11280 ft 331 kts 189°
2026-04-26 17:56 20.37055 -81.76461 11033 ft 325 kts 189°
2026-04-26 17:56 20.32711 -81.77271 11004 ft 314 kts 189°
2026-04-26 17:57 20.28413 -81.78069 11009 ft 313 kts 189°
2026-04-26 17:57 20.26264 -81.78465 11007 ft 313 kts 189°
2026-04-26 17:57 20.24116 -81.78864 11001 ft 313 kts 189°
2026-04-26 17:57 20.21970 -81.79265 11004 ft 313 kts 189°
2026-04-26 17:58 20.15529 -81.80467 11005 ft 313 kts 189°
2026-04-26 17:59 20.11233 -81.81261 11005 ft 313 kts 189°
2026-04-26 17:59 20.09086 -81.81658 11005 ft 313 kts 189°
2026-04-26 17:59 20.06940 -81.82053 11005 ft 313 kts 189°
2026-04-26 17:59 20.04793 -81.82448 11005 ft 313 kts 189°
2026-04-26 18:00 20.02647 -81.82836 11003 ft 313 kts 187°
2026-04-26 18:00 20.00475 -81.82932 11004 ft 312 kts 175°
2026-04-26 18:00 19.98342 -81.82580 11005 ft 311 kts 163°
2026-04-26 18:00 19.96305 -81.81829 11005 ft 309 kts 156°
2026-04-26 18:01 19.94299 -81.81001 11005 ft 309 kts 157°
2026-04-26 18:01 19.92288 -81.80180 11005 ft 310 kts 157°
2026-04-26 18:01 19.90275 -81.79363 11004 ft 310 kts 157°
2026-04-26 18:01 19.88260 -81.78548 11004 ft 310 kts 157°
2026-04-26 18:02 19.86246 -81.77732 11005 ft 310 kts 157°
2026-04-26 18:02 19.85592 -81.77466 11005 ft 310 kts 157°
2026-04-26 18:02 19.82220 -81.76087 11005 ft 310 kts 157°
2026-04-26 18:02 19.80237 -81.75274 11005 ft 310 kts 157°
2026-04-26 18:03 19.78225 -81.74454 11021 ft 310 kts 157°
2026-04-26 18:03 19.76211 -81.73637 11015 ft 310 kts 157°
2026-04-26 18:03 19.74199 -81.72821 11005 ft 309 kts 158°
2026-04-26 18:03 19.72189 -81.72005 11005 ft 309 kts 158°
2026-04-26 18:04 19.70184 -81.71189 11024 ft 309 kts 157°
2026-04-26 18:04 19.68173 -81.70371 10819 ft 309 kts 158°
2026-04-26 18:04 19.66181 -81.69563 10529 ft 305 kts 158°
2026-04-26 18:05 19.62212 -81.67952 9736 ft 306 kts 158°
2026-04-26 18:05 19.60226 -81.67145 9420 ft 303 kts 158°
2026-04-26 18:05 19.58252 -81.66345 9033 ft 302 kts 158°
2026-04-26 18:05 19.56306 -81.65557 8722 ft 299 kts 158°
2026-04-26 18:06 19.54370 -81.64775 8351 ft 297 kts 158°
2026-04-26 18:06 19.52453 -81.63997 7922 ft 293 kts 158°
2026-04-26 18:06 19.50552 -81.63224 7405 ft 291 kts 158°
2026-04-26 18:06 19.48669 -81.62458 6912 ft 288 kts 158°
2026-04-26 18:07 19.46811 -81.61703 6419 ft 284 kts 158°
2026-04-26 18:07 19.44980 -81.60959 5906 ft 279 kts 158°
2026-04-26 18:07 19.43190 -81.60232 5451 ft 274 kts 159°
2026-04-26 18:07 19.42010 -81.59755 5147 ft 275 kts 158°
2026-04-26 18:08 19.39634 -81.58790 4573 ft 273 kts 158°
2026-04-26 18:08 19.37863 -81.58072 4137 ft 272 kts 158°
2026-04-26 18:08 19.36100 -81.57360 3765 ft 267 kts 158°
2026-04-26 18:08 19.34429 -81.56689 3632 ft 247 kts 158°
2026-04-26 18:09 19.32875 -81.56065 3377 ft 234 kts 158°
2026-04-26 18:09 19.31376 -81.55460 3105 ft 224 kts 158°
2026-04-26 18:09 19.29943 -81.54880 2738 ft 221 kts 158°
2026-04-26 18:09 19.28504 -81.54298 2361 ft 218 kts 158°
2026-04-26 18:10 19.27120 -81.53726 2203 ft 209 kts 154°
2026-04-26 18:10 19.26074 -81.52788 2107 ft 193 kts 122°
2026-04-26 18:10 19.25655 -81.51490 2012 ft 189 kts 94°
2026-04-26 18:10 19.25857 -81.50123 1943 ft 183 kts 77°
2026-04-26 18:11 19.26170 -81.48842 1842 ft 178 kts 78°
2026-04-26 18:11 19.26469 -81.47594 1737 ft 176 kts 78°
2026-04-26 18:11 19.26768 -81.46343 1656 ft 175 kts 78°
2026-04-26 18:11 19.27059 -81.45128 1577 ft 168 kts 78°
2026-04-26 18:12 19.27344 -81.43940 1481 ft 166 kts 78°
2026-04-26 18:12 19.27625 -81.42757 1231 ft 165 kts 78°
2026-04-26 18:12 19.27904 -81.41581 996 ft 164 kts 78°
2026-04-26 18:12 19.28178 -81.40429 767 ft 159 kts 78°
2026-04-26 18:13 19.28442 -81.39317 555 ft 153 kts 78°
2026-04-26 18:13 19.28700 -81.38228 300 ft 152 kts 78°
2026-04-26 18:13 19.28954 -81.37157 92 ft 148 kts 79°
2026-04-26 18:13 19.29037 -81.36802 45 ft 143 kts 79°
2026-04-26 18:14 19.29341 -81.35485 14 ft 71 kts 75°
2026-04-26 18:14 19.29425 -81.35148 15 ft 35 kts 75°
2026-04-26 18:14 19.29469 -81.34973 16 ft 14 kts 75°
2026-04-26 18:14 19.29479 -81.34931 17 ft 0 kts 75°
2026-04-26 18:15 19.29483 -81.34917 17 ft 8 kts 75°
2026-04-26 18:15 19.29536 -81.34877 19 ft 10 kts 337°
2026-04-26 18:15 19.29574 -81.34947 15 ft 13 kts 264°
2026-04-26 18:15 19.29549 -81.35050 15 ft 16 kts 255°
2026-04-26 18:16 19.29521 -81.35170 16 ft 18 kts 257°
2026-04-26 18:16 19.29466 -81.35401 15 ft 21 kts 255°
2026-04-26 18:16 19.29430 -81.35553 14 ft 18 kts 261°
2026-04-26 18:17 19.29478 -81.35635 15 ft 11 kts 300°
2026-04-26 18:17 19.29538 -81.35653 15 ft 4 kts 351°
2026-04-26 18:17 19.29551 -81.35655 15 ft 1 kts 349°
2026-04-26 18:17 19.29553 -81.35656 15 ft 0 kts 349°